Regional Weather Roundup
Issued by NWS

Home | Current Version | Previous Version | Graphics & Text | Print | Product List | Glossary On
Versions: 1 2 3 4 5 6 7 8 9 10 11 12 13 14 15 16 17 18 19 20 21 22 23 24 25 26 27 28 29 30 31 32 33 34 35 36 37 38 39 40 41 42 43 44 45 46 47 48 49 50
000
ASUS43 KDTX 282110
RWRMI
MICHIGAN HOURLY REGIONAL WEATHER ROUNDUP
NATIONAL WEATHER SERVICE DETROIT/PONTIAC MI
500 PM EDT TUE MAR 28 2017

NOTE: "FAIR" INDICATES FEW OR NO CLOUDS BELOW 12,000 FEET WITH NO
SIGNIFICANT WEATHER AND/OR OBSTRUCTION TO VISIBILITY.

MIZ047>049-052>055-059>063-066>070-074>076-081>083-282200-
SOUTHEAST LOWER MICHIGAN

CITY           SKY/WX    TMP DP  RH WIND       PRES   REMARKS
ADRIAN         CLOUDY    47  40  76 NE6       30.10R
ALMA           SUNNY     50  38  64 NE8       30.12F
ANN ARBOR      CLOUDY    47  39  74 NW10      30.09R
BAD AXE        PTSUNNY   43  33  69 NE12      30.14R
CARO           MOSUNNY   45  37  72 N10G17    30.13R
DETROIT CITY   PTSUNNY   50  38  63 N14G22    30.08R
DETROIT        CLOUDY    49  39  68 N8        30.09R
FLINT          PTSUNNY   46  36  68 N13       30.12R
GROSSE ILE     PTSUNNY   48  38  68 NE7       30.07R
HILLSDALE      CLOUDY    45  37  76 NE6       30.08R
HOWELL         CLOUDY    44  36  73 N8        30.10S

CITY           SKY/WX    TMP DP  RH WIND       PRES   REMARKS
JACKSON        CLOUDY    45  37  73 NE8       30.10R
LAMBERTVILLE   CLOUDY    49  40  70 NW6       30.08S
LANSING        MOSUNNY   48  34  58 N9        30.13R
LAPEER         FAIR      49  37  61 N7G18     30.10R
MASON          CLOUDY    44  38  77 NE7       30.11S
MONROE         CLOUDY    49  41  75 N10       30.08R
MT. CLEMENS    MOSUNNY   51  39  65 N12       30.06R
PONTIAC        PTSUNNY   48  36  63 N8        30.08R
PORT HOPE        N/A     40  35  83 N5        30.13S
PORT HURON     SUNNY     43  34  70 NE14      30.11R
TRI CITIES     SUNNY     48  38  68 NE9       30.14R
MIDLAND        FAIR      50  38  62 E6        30.13R
TROY           PTSUNNY   49  37  62 N12       30.10R
SAGINAW HB     SUNNY     46  34  61 N7        30.14R
$$
MIZ043>046-050>051-056>058-064>065-071>073-077>080-282200-
SOUTHWEST LOWER MICHIGAN

CITY           SKY/WX    TMP DP  RH WIND       PRES   REMARKS
BATTLE CREEK   CLOUDY    47  39  74 N10       30.11R
BENTON HARBOR  CLOUDY    43  37  79 VRB3      30.13R
BIG RAPIDS     SUNNY     55  33  43 NE6       30.10S
COLDWATER      CLOUDY    47  40  77 N8        30.10R
FREMONT        FAIR      55  34  46 CALM      30.11R
HOLLAND        CLOUDY    47  39  74 W6        30.13S
GRAND RAPIDS   PTSUNNY   49  40  71 N8        30.13R
IONIA          PTSUNNY   47  35  63 NE8       30.12S
KALAMAZOO      CLOUDY    48  37  65 NE7       30.12R
LUDINGTON      SUNNY     46  38  73 N12       30.14R
MARSHALL       CLOUDY    46  39  76 N6        30.11R
MOUNT PLEASANT SUNNY     52  34  49 NE3       30.11S
MUSKEGON       MOSUNNY   48  38  68 W10       30.14R
SOUTH HAVEN    CLOUDY    42  38  86 N6        30.12S
$$
MIZ016>042-282200-
NORTHERN LOWER MICHIGAN

CITY           SKY/WX    TMP DP  RH WIND       PRES   REMARKS
ALPENA         SUNNY     51  30  44 N8        30.16R
BEAVER ISLAND  SUNNY     41  35  76 W5        30.19R
BELLAIRE       SUNNY     49  36  58 CALM      30.15F
CADILLAC       SUNNY     55  35  46 N8        30.11R
CHARLEVOIX     FOG       35  34  94 NW7       30.21R VSB 1/4 WCI  30
FRANKFORT      SUNNY     45  35  68 NW8       30.16S
GAYLORD        SUNNY     53  30  41 NE7       30.12F
GRAYLING       SUNNY     54  32  43 N9        30.13S
HARBOR SPRINGS FOG       33  33  99 SW9       30.17S VSB<1/4 WCI  25
HOUGHTON LAKE  SUNNY     55  32  41 VRB3      30.11S
MANISTEE       SUNNY     45  37  73 NW10      30.15R
OSCODA         SUNNY     46  32  58 NE10      30.14S
PELLSTON       SUNNY     53  26  35 N12       30.16R
ROGERS CITY    SUNNY     45  32  60 N7        30.17S
TRAVERSE CITY  SUNNY     44  35  70 N9        30.15F
$$
MIZ007>008-015-282200-
EASTERN UPPER MICHIGAN

CITY           SKY/WX    TMP DP  RH WIND       PRES   REMARKS
KINROSS        SUNNY     48  27  44 N13       30.17R
MACKINAC ISLAN SUNNY     43  32  64 SW3       30.17R
NEWBERRY       SUNNY     49  31  48 NW8       30.16S
S. S. MARIE    SUNNY     49  29  46 NW9       30.16R
MUNISING         N/A     38  31  76 N8        30.19S WCI  32
$$
MIZ004>006-011>014-085-282200-
CENTRAL UPPER MICHIGAN

CITY           SKY/WX    TMP DP  RH WIND       PRES   REMARKS
MANISTIQUE     SUNNY     36  35  96 S8        30.18S WCI  29
ESCANABA       SUNNY     41  32  70 S7        30.18S
MENOMINEE        N/A    N/A N/A N/A MISG        N/A
SAWYER-GWINN   MOSUNNY   48  32  53 NE15      30.17R
$$
MIZ001>003-009>011-084-282200-
WESTERN UPPER MICHIGAN

CITY           SKY/WX    TMP DP  RH WIND       PRES   REMARKS
IRON MOUNTAIN  MOSUNNY   58  27  30 VRB3      30.13S
HOUGHTON       SUNNY     47  31  53 NW7       30.18R
COPPER HARBOR    N/A     39  34  82 CALM      30.20S
IRONWOOD       SUNNY     56  28  34 N10       30.16S
$$

ABBREVIATIONS USED IN REMARKS
   TC - TEMPERATURE IN CELSIUS
  WCI - WIND CHILL INDEX
   HX - HEAT INDEX
  VSB - VISIBILITY





USA.gov is the U.S. government's official web portal to all federal, state and local government web resources and services.